Regional Weather Roundup
Issued by NWS Albany, NY

Home | Current Version | Previous Version | Graphics & Text | Print | Product List | Glossary Off
Versions: 1 2 3 4 5 6 7 8 9 10 11 12 13 14 15 16 17 18 19 20 21 22 23 24 25 26 27 28 29 30 31 32 33 34 35 36 37 38 39 40 41 42 43 44 45 46 47 48 49 50

000
ASUS41 KALY 180610
RWRALY

NEW YORK STATE HOURLY WEATHER ROUNDUP
NATIONAL WEATHER SERVICE ALBANY NY
100 AM EST THU DEC 18 2014

NOTE: "FAIR" INDICATES FEW OR NO CLOUDS BELOW 12,000 FEET WITH NO
SIGNIFICANT WEATHER AND/OR NO OBSTRUCTIONS TO VISIBILITY.

NYZ032-033-038>043-046>054-057>066-NYZ062>081-180700-
EAST


CITY           SKY/WX    TMP DP  RH WIND       PRES   REMARKS
ALBANY         FLURRIES  36  29  75 W14       29.83F WCI  27
GLENS FALLS    CLOUDY    35  31  85 S8        29.78F WCI  29
POUGHKEEPSIE   CLOUDY    41  27  57 W9G23     29.84F
NEWBURGH       CLOUDY    37  30  75 NW18      29.87S WCI  27
MONTGOMERY     CLOUDY    38  27  64 W7        29.85F WCI  33
WHITE PLAINS   MOCLDY    40  28  62 NW18G24   29.84S WCI  31
ISLIP          PTCLDY    41  30  65 NW16G24   29.82F
NEW YORK CITY  CLOUDY    42  27  55 NW14G24   29.87F
CENTRAL PARK   CLOUDY    41  25  53 W12G20    29.90S
$$

NYZ005>009-017-018-044>046-055-056-180700-
CENTRAL


CITY           SKY/WX    TMP DP  RH WIND       PRES   REMARKS
FULTON         LGT SNOW  33  29  85 W17G25    29.90S FOG     WCI  22
SYRACUSE       LGT SNOW  31  30  96 W18       29.91S FOG     WCI  19
ROME           CLOUDY    32  30  92 W14       29.88F WCI  22
ELMIRA         LGT SNOW  32  27  81 W7        29.95S WCI  26
BINGHAMTON     FLURRIES  30  25  81 W16G24    29.87S WCI  19
MONTICELLO     CLOUDY    30  28  93 W12G21    29.85S WCI  21
$$

NYZ026>034-041>043-180700-
NORTH


CITY           SKY/WX    TMP DP  RH WIND       PRES   REMARKS
WATERTOWN      MIX PCPN  37  28  70 W20G28    29.86R WCI  27
FORT DRUM      NOT AVBL
MASSENA        FLURRIES  34  31  88 SW8       29.79F WCI  27
SARANAC LAKE   LGT SNOW  31  32 100 W8G21     29.71S WCI  23
PLATTSBURGH    LGT RAIN  34  34 100 CALM      29.74F FOG
$$

NYZ001>004-010>016-019>021-180700-
WEST


CITY           SKY/WX    TMP DP  RH WIND       PRES   REMARKS
NIAGARA FALLS  MOCLDY    29  23  78 W18G26    29.99S WCI  16
BUFFALO        PTCLDY    29  22  75 W16G24    30.00R WCI  17
DUNKIRK        CLOUDY    32  23  69 W16G28    30.05R WCI  21
JAMESTOWN      CLOUDY    27  19  74 W13G20    30.00R WCI  16
WELLSVILLE     CLOUDY    27  19  72 W14G26    29.94R WCI  16
ROCHESTER      FLURRIES  32  26  78 W18G25    29.96S WCI  20
PENN YAN       CLOUDY    32  26  78 W12       29.94S WCI  23
$$

             KEY
       WCI = WIND CHILL INDEX
       VSB = VISIBILITY
       HX  = HEAT INDEX
$$



USA.gov is the U.S. government's official web portal to all federal, state and local government web resources and services.